Back to Top

Language: 

My Weather Underground Personal Weather Station Historical Data with Graphs...

Delerius Weather Station Historical Data
Daily Summary for January 28, 2017 Units:  Metric    English   Both
« Previous Day
Next Day »
Daily Weekly Monthly Yearly Custom
  High: Low: Average:
Temperature: 7.4 °C 1.9 °C 3.9 °C
Dew Point: 5.3 °C 0.9 °C 3 °C
Humidity: 98 % 86 % 94 %
Wind Speed: 20.9 km/h 0 km/h 5.5 km/h
Wind Gust: -1607.7 km/h - -
Wind:- - South
Pressure: 1009.7 hPa 1004.3 hPa -
Precipitation: 2.79 mm    
Historical Graphs
 
 
Tabular Data for January 28, 2017
Time Temperature Dew Point Pressure Wind Wind Speed Wind Gust Humidity Rainfall Rate (Hourly) solar Conditions
00:01 2.3 °C 1.9 °C 1007.3 hPa East 1.6 km/h -1607.7 km/h 97 % 0.25 mm 0 W/m2
00:06 2.3 °C 1.9 °C 1007.3 hPa East 1.6 km/h -1607.7 km/h 97 % 0.25 mm 0 W/m2
00:11 2.3 °C 1.9 °C 1007.3 hPa East 1.6 km/h -1607.7 km/h 97 % 0 mm 0 W/m2
00:16 2.3 °C 1.9 °C 1007.3 hPa East 1.6 km/h -1607.7 km/h 97 % 0 mm 0 W/m2
00:21 2.3 °C 1.9 °C 1007.3 hPa East 1.6 km/h -1607.7 km/h 97 % 0 mm 0 W/m2
00:26 2.5 °C 2.1 °C 1007.3 hPa SE 3.2 km/h -1607.7 km/h 97 % 0 mm 0 W/m2
00:31 2.5 °C 2.1 °C 1007.3 hPa SE 3.2 km/h -1607.7 km/h 97 % 0 mm 0 W/m2
00:36 2.5 °C 2.1 °C 1007.3 hPa SE 3.2 km/h -1607.7 km/h 97 % 0 mm 0 W/m2
00:41 2.6 °C 2.1 °C 1007 hPa SE 1.6 km/h -1607.7 km/h 97 % 0 mm 0 W/m2
00:46 2.6 °C 2.1 °C 1007 hPa SE 1.6 km/h -1607.7 km/h 97 % 0 mm 0 W/m2
00:51 2.6 °C 2.1 °C 1007 hPa SE 1.6 km/h -1607.7 km/h 97 % 0 mm 0 W/m2
00:56 2.7 °C 2.2 °C 1007 hPa ESE 6.4 km/h -1607.7 km/h 97 % 0 mm 0 W/m2
01:01 2.7 °C 2.2 °C 1007 hPa ESE 6.4 km/h -1607.7 km/h 97 % 0 mm 0 W/m2
01:06 2.7 °C 2.2 °C 1007 hPa ESE 6.4 km/h -1607.7 km/h 97 % 0 mm 0 W/m2
01:11 2.8 °C 2.3 °C 1007 hPa ESE 6.4 km/h -1607.7 km/h 97 % 0 mm 0 W/m2
01:16 2.8 °C 2.3 °C 1007 hPa ESE 6.4 km/h -1607.7 km/h 97 % 0 mm 0 W/m2
01:21 2.8 °C 2.3 °C 1007 hPa ESE 6.4 km/h -1607.7 km/h 97 % 0 mm 0 W/m2
01:26 2.8 °C 2.4 °C 1007 hPa ESE 6.4 km/h -1607.7 km/h 97 % 0 mm 0 W/m2
01:31 2.8 °C 2.4 °C 1007 hPa ESE 6.4 km/h -1607.7 km/h 97 % 0 mm 0 W/m2
01:36 2.8 °C 2.4 °C 1007 hPa ESE 6.4 km/h -1607.7 km/h 97 % 0 mm 0 W/m2
01:41 2.9 °C 2.4 °C 1006.7 hPa SE 6.4 km/h -1607.7 km/h 97 % 0 mm 0 W/m2
01:46 2.9 °C 2.4 °C 1006.7 hPa SE 6.4 km/h -1607.7 km/h 97 % 0 mm 0 W/m2
01:51 2.9 °C 2.4 °C 1006.7 hPa SE 6.4 km/h -1607.7 km/h 97 % 0 mm 0 W/m2
01:56 2.9 °C 2.4 °C 1006.7 hPa SE 6.4 km/h -1607.7 km/h 97 % 0 mm 0 W/m2
02:01 2.9 °C 2.4 °C 1006.7 hPa SE 6.4 km/h -1607.7 km/h 97 % 0 mm 0 W/m2
02:06 2.9 °C 2.4 °C 1006.7 hPa SE 6.4 km/h -1607.7 km/h 97 % 0 mm 0 W/m2
02:11 2.9 °C 2.4 °C 1006.7 hPa SE 4.8 km/h -1607.7 km/h 97 % 0 mm 0 W/m2
02:16 2.9 °C 2.4 °C 1006.7 hPa SE 4.8 km/h -1607.7 km/h 97 % 0 mm 0 W/m2
02:21 2.9 °C 2.4 °C 1006.7 hPa SE 4.8 km/h -1607.7 km/h 97 % 0 mm 0 W/m2
02:26 2.9 °C 2.5 °C 1006.3 hPa SE 6.4 km/h -1607.7 km/h 97 % 0.25 mm 0 W/m2
02:31 2.9 °C 2.5 °C 1006.3 hPa SE 6.4 km/h -1607.7 km/h 97 % 0.25 mm 0 W/m2
02:36 2.9 °C 2.5 °C 1006.3 hPa SE 6.4 km/h -1607.7 km/h 97 % 0.25 mm 0 W/m2
02:41 2.9 °C 2.5 °C 1006.3 hPa ESE 6.4 km/h -1607.7 km/h 97 % 0.25 mm 0 W/m2
02:46 2.9 °C 2.5 °C 1006.3 hPa ESE 6.4 km/h -1607.7 km/h 97 % 0.25 mm 0 W/m2
02:51 2.9 °C 2.5 °C 1006.3 hPa ESE 6.4 km/h -1607.7 km/h 97 % 0.25 mm 0 W/m2
02:56 2.9 °C 2.5 °C 1006.3 hPa ESE 4.8 km/h -1607.7 km/h 97 % 0.25 mm 0 W/m2
03:01 2.9 °C 2.5 °C 1006.3 hPa ESE 4.8 km/h -1607.7 km/h 97 % 0.25 mm 0 W/m2
03:06 2.9 °C 2.5 °C 1006.3 hPa ESE 4.8 km/h -1607.7 km/h 97 % 0.25 mm 0 W/m2
03:11 2.9 °C 2.5 °C 1006.3 hPa SE 3.2 km/h -1607.7 km/h 97 % 0.25 mm 0 W/m2
03:16 2.9 °C 2.5 °C 1006.3 hPa SE 3.2 km/h -1607.7 km/h 97 % 0.25 mm 0 W/m2
03:21 2.9 °C 2.5 °C 1006.3 hPa SE 3.2 km/h -1607.7 km/h 97 % 0.25 mm 0 W/m2
03:26 2.9 °C 2.4 °C 1006 hPa ESE 3.2 km/h -1607.7 km/h 97 % 0 mm 0 W/m2
03:31 2.9 °C 2.4 °C 1006 hPa ESE 3.2 km/h -1607.7 km/h 97 % 0 mm 0 W/m2
03:36 2.9 °C 2.4 °C 1006 hPa ESE 3.2 km/h -1607.7 km/h 97 % 0 mm 0 W/m2
03:41 2.9 °C 2.4 °C 1006 hPa ESE 1.6 km/h -1607.7 km/h 97 % 0 mm 0 W/m2
03:46 2.9 °C 2.4 °C 1006 hPa ESE 1.6 km/h -1607.7 km/h 97 % 0 mm 0 W/m2
03:51 2.9 °C 2.4 °C 1006 hPa ESE 1.6 km/h -1607.7 km/h 97 % 0 mm 0 W/m2
03:56 2.9 °C 2.6 °C 1005.6 hPa Calm   -1607.7 km/h 98 % 0.25 mm 0 W/m2
04:01 2.9 °C 2.6 °C 1005.6 hPa Calm   -1607.7 km/h 98 % 0.25 mm 0 W/m2
04:06 2.9 °C 2.6 °C 1005.6 hPa Calm   -1607.7 km/h 98 % 0.25 mm 0 W/m2
04:11 2.9 °C 2.4 °C 1005.6 hPa Calm   -1607.7 km/h 97 % 0.25 mm 0 W/m2
04:16 2.9 °C 2.4 °C 1005.6 hPa Calm   -1607.7 km/h 97 % 0.25 mm 0 W/m2
04:21 2.9 °C 2.4 °C 1005.6 hPa Calm   -1607.7 km/h 97 % 0.25 mm 0 W/m2
04:26 2.9 °C 2.4 °C 1005.6 hPa East 1.6 km/h -1607.7 km/h 97 % 0.51 mm 0 W/m2
04:31 2.9 °C 2.4 °C 1005.6 hPa East 1.6 km/h -1607.7 km/h 97 % 0.51 mm 0 W/m2
04:36 2.9 °C 2.4 °C 1005.6 hPa East 1.6 km/h -1607.7 km/h 97 % 0.51 mm 0 W/m2
04:41 2.9 °C 2.7 °C 1005.6 hPa East 1.6 km/h -1607.7 km/h 98 % 0.51 mm 0 W/m2
04:46 2.9 °C 2.7 °C 1005.6 hPa East 1.6 km/h -1607.7 km/h 98 % 0.51 mm 0 W/m2
04:51 2.9 °C 2.7 °C 1005.6 hPa East 1.6 km/h -1607.7 km/h 98 % 0.51 mm 0 W/m2
04:56 3 °C 2.6 °C 1005.3 hPa ESE 1.6 km/h -1607.7 km/h 97 % 0.51 mm 0 W/m2
05:01 3 °C 2.6 °C 1005.3 hPa ESE 1.6 km/h -1607.7 km/h 97 % 0.51 mm 0 W/m2
05:06 3 °C 2.6 °C 1005.3 hPa ESE 1.6 km/h -1607.7 km/h 97 % 0.51 mm 0 W/m2
05:11 2.9 °C 2.7 °C 1005.3 hPa ESE 4.8 km/h -1607.7 km/h 98 % 1.02 mm 0 W/m2
05:16 2.9 °C 2.7 °C 1005.3 hPa ESE 4.8 km/h -1607.7 km/h 98 % 1.02 mm 0 W/m2
05:21 2.9 °C 2.7 °C 1005.3 hPa ESE 4.8 km/h -1607.7 km/h 98 % 1.02 mm 0 W/m2
05:26 3 °C 2.7 °C 1005.3 hPa ESE 4.8 km/h -1607.7 km/h 98 % 1.02 mm 0 W/m2
05:31 3 °C 2.7 °C 1005.3 hPa ESE 4.8 km/h -1607.7 km/h 98 % 1.02 mm 0 W/m2
05:36 3 °C 2.7 °C 1005.3 hPa ESE 4.8 km/h -1607.7 km/h 98 % 1.02 mm 0 W/m2
05:41 3.1 °C 2.8 °C 1005.3 hPa ESE 4.8 km/h -1607.7 km/h 98 % 1.02 mm 0 W/m2
05:46 3.1 °C 2.8 °C 1005.3 hPa ESE 4.8 km/h -1607.7 km/h 98 % 1.02 mm 0 W/m2
05:51 3.1 °C 2.8 °C 1005.3 hPa ESE 4.8 km/h -1607.7 km/h 98 % 1.02 mm 0 W/m2
05:56 3.1 °C 2.8 °C 1004.6 hPa ESE 1.6 km/h -1607.7 km/h 98 % 0.76 mm 0 W/m2
06:01 3.1 °C 2.8 °C 1004.6 hPa ESE 1.6 km/h -1607.7 km/h 98 % 0.76 mm 0 W/m2
06:06 3.1 °C 2.8 °C 1004.6 hPa ESE 1.6 km/h -1607.7 km/h 98 % 0.76 mm 0 W/m2
06:11 3.2 °C 2.9 °C 1004.6 hPa ESE 4.8 km/h -1607.7 km/h 98 % 0.51 mm 0 W/m2
06:16 3.2 °C 2.9 °C 1004.6 hPa ESE 4.8 km/h -1607.7 km/h 98 % 0.51 mm 0 W/m2
06:21 3.2 °C 2.9 °C 1004.6 hPa ESE 4.8 km/h -1607.7 km/h 98 % 0.51 mm 0 W/m2
06:26 3.2 °C 2.9 °C 1004.6 hPa ESE 3.2 km/h -1607.7 km/h 98 % 0.51 mm 0 W/m2
06:31 3.2 °C 2.9 °C 1004.6 hPa ESE 3.2 km/h -1607.7 km/h 98 % 0.51 mm 0 W/m2
06:36 3.2 °C 2.9 °C 1004.6 hPa ESE 3.2 km/h -1607.7 km/h 98 % 0.51 mm 0 W/m2
06:41 3.3 °C 3 °C 1004.6 hPa ESE 6.4 km/h -1607.7 km/h 98 % 0.25 mm 0 W/m2
06:46 3.3 °C 3 °C 1004.6 hPa ESE 6.4 km/h -1607.7 km/h 98 % 0.25 mm 0 W/m2
06:51 3.3 °C 3 °C 1004.6 hPa ESE 6.4 km/h -1607.7 km/h 98 % 0.25 mm 0 W/m2
06:56 3.3 °C 3.1 °C 1004.3 hPa SE 6.4 km/h -1607.7 km/h 98 % 0.25 mm 0 W/m2
07:01 3.3 °C 3.1 °C 1004.3 hPa SE 6.4 km/h -1607.7 km/h 98 % 0.25 mm 0 W/m2
07:06 3.3 °C 3.1 °C 1004.3 hPa SE 6.4 km/h -1607.7 km/h 98 % 0.25 mm 0 W/m2
07:11 3.4 °C 3.1 °C 1004.3 hPa SE 4.8 km/h -1607.7 km/h 98 % 0 mm 0 W/m2
07:16 3.4 °C 3.1 °C 1004.3 hPa SE 4.8 km/h -1607.7 km/h 98 % 0 mm 0 W/m2
07:21 3.4 °C 3.1 °C 1004.3 hPa SE 4.8 km/h -1607.7 km/h 98 % 0 mm 0 W/m2
07:26 3.4 °C 3.2 °C 1004.3 hPa SE 6.4 km/h -1607.7 km/h 98 % 0 mm 0 W/m2
07:31 3.4 °C 3.2 °C 1004.3 hPa SE 6.4 km/h -1607.7 km/h 98 % 0 mm 0 W/m2
07:36 3.4 °C 3.2 °C 1004.3 hPa SE 6.4 km/h -1607.7 km/h 98 % 0 mm 0 W/m2
07:41 3.5 °C 3.2 °C 1004.3 hPa SSE 6.4 km/h -1607.7 km/h 98 % 0 mm 0 W/m2
07:46 3.5 °C 3.2 °C 1004.3 hPa SSE 6.4 km/h -1607.7 km/h 98 % 0 mm 0 W/m2
07:51 3.5 °C 3.2 °C 1004.3 hPa SSE 6.4 km/h -1607.7 km/h 98 % 0 mm 0 W/m2
07:56 3.6 °C 3.3 °C 1004.3 hPa SE 3.2 km/h -1607.7 km/h 98 % 0 mm 0 W/m2
08:01 3.6 °C 3.3 °C 1004.3 hPa SE 3.2 km/h -1607.7 km/h 98 % 0 mm 0 W/m2
08:06 3.6 °C 3.3 °C 1004.3 hPa SE 3.2 km/h -1607.7 km/h 98 % 0 mm 0 W/m2
08:11 3.6 °C 3.3 °C 1004.3 hPa SE 1.6 km/h -1607.7 km/h 98 % 0.25 mm 1 W/m2
08:16 3.6 °C 3.3 °C 1004.3 hPa SE 1.6 km/h -1607.7 km/h 98 % 0.25 mm 1 W/m2
08:21 3.6 °C 3.3 °C 1004.3 hPa SE 1.6 km/h -1607.7 km/h 98 % 0.25 mm 1 W/m2
08:26 3.6 °C 3.3 °C 1004.3 hPa SE 1.6 km/h -1607.7 km/h 98 % 0.25 mm 5 W/m2
08:31 3.6 °C 3.3 °C 1004.3 hPa SE 1.6 km/h -1607.7 km/h 98 % 0.25 mm 5 W/m2
08:36 3.6 °C 3.3 °C 1004.3 hPa SE 1.6 km/h -1607.7 km/h 98 % 0.25 mm 5 W/m2
08:41 3.7 °C 3.4 °C 1004.3 hPa SE 4.8 km/h -1607.7 km/h 98 % 0.25 mm 11 W/m2
08:46 3.7 °C 3.4 °C 1004.3 hPa SE 4.8 km/h -1607.7 km/h 98 % 0.25 mm 11 W/m2
08:51 3.7 °C 3.4 °C 1004.3 hPa SE 4.8 km/h -1607.7 km/h 98 % 0.25 mm 11 W/m2
08:56 3.7 °C 3.4 °C 1004.3 hPa SE 4.8 km/h -1607.7 km/h 98 % 0.25 mm 28 W/m2
09:01 3.7 °C 3.4 °C 1004.3 hPa SE 4.8 km/h -1607.7 km/h 98 % 0.25 mm 28 W/m2
09:06 3.7 °C 3.4 °C 1004.3 hPa SE 4.8 km/h -1607.7 km/h 98 % 0.25 mm 28 W/m2
09:11 3.8 °C 3.6 °C 1004.3 hPa SE 3.2 km/h -1607.7 km/h 98 % 0 mm 31 W/m2
09:16 3.8 °C 3.6 °C 1004.3 hPa SE 3.2 km/h -1607.7 km/h 98 % 0 mm 31 W/m2
09:21 3.8 °C 3.6 °C 1004.3 hPa SE 3.2 km/h -1607.7 km/h 98 % 0 mm 31 W/m2
09:26 3.9 °C 3.7 °C 1004.3 hPa Calm   -1607.7 km/h 98 % 0 mm 23 W/m2
09:31 3.9 °C 3.7 °C 1004.3 hPa Calm   -1607.7 km/h 98 % 0 mm 23 W/m2
09:36 3.9 °C 3.7 °C 1004.3 hPa Calm   -1607.7 km/h 98 % 0 mm 23 W/m2
09:41 4.1 °C 3.8 °C 1004.3 hPa SE 1.6 km/h -1607.7 km/h 98 % 0 mm 28 W/m2
09:46 4.1 °C 3.8 °C 1004.3 hPa SE 1.6 km/h -1607.7 km/h 98 % 0 mm 28 W/m2
09:51 4.1 °C 3.8 °C 1004.3 hPa SE 1.6 km/h -1607.7 km/h 98 % 0 mm 28 W/m2
09:56 4.3 °C 4 °C 1004.3 hPa SE 4.8 km/h -1607.7 km/h 98 % 0 mm 34 W/m2
10:01 4.3 °C 4 °C 1004.3 hPa SE 4.8 km/h -1607.7 km/h 98 % 0 mm 34 W/m2
10:06 4.3 °C 4 °C 1004.3 hPa SE 4.8 km/h -1607.7 km/h 98 % 0 mm 34 W/m2
10:11 4.4 °C 4.1 °C 1004.3 hPa ESE 3.2 km/h -1607.7 km/h 98 % 0 mm 25 W/m2
10:16 4.4 °C 4.1 °C 1004.3 hPa ESE 3.2 km/h -1607.7 km/h 98 % 0 mm 25 W/m2
10:21 4.4 °C 4.1 °C 1004.3 hPa ESE 3.2 km/h -1607.7 km/h 98 % 0 mm 25 W/m2
10:26 4.5 °C 4.2 °C 1004.6 hPa Calm   -1607.7 km/h 98 % 0.25 mm 30 W/m2
10:31 4.5 °C 4.2 °C 1004.6 hPa Calm   -1607.7 km/h 98 % 0.25 mm 30 W/m2
10:36 4.5 °C 4.2 °C 1004.6 hPa Calm   -1607.7 km/h 98 % 0.25 mm 30 W/m2
10:41 4.6 °C 4.3 °C 1004.6 hPa Calm   -1607.7 km/h 98 % 0.25 mm 34 W/m2
10:46 4.6 °C 4.3 °C 1004.6 hPa Calm   -1607.7 km/h 98 % 0.25 mm 34 W/m2
10:51 4.6 °C 4.3 °C 1004.6 hPa Calm   -1607.7 km/h 98 % 0.25 mm 34 W/m2
10:56 4.7 °C 4.4 °C 1004.6 hPa Calm   -1607.7 km/h 98 % 0.51 mm 27 W/m2
11:01 4.7 °C 4.4 °C 1004.6 hPa Calm   -1607.7 km/h 98 % 0.51 mm 27 W/m2
11:06 4.7 °C 4.4 °C 1004.6 hPa Calm   -1607.7 km/h 98 % 0.51 mm 27 W/m2
11:11 4.8 °C 4.6 °C 1004.6 hPa Calm   -1607.7 km/h 98 % 0.51 mm 38 W/m2
11:16 4.8 °C 4.6 °C 1004.6 hPa Calm   -1607.7 km/h 98 % 0.51 mm 38 W/m2
11:21 4.8 °C 4.6 °C 1004.6 hPa Calm   -1607.7 km/h 98 % 0.51 mm 38 W/m2
11:26 5.1 °C 4.8 °C 1005 hPa West 4.8 km/h -1607.7 km/h 98 % 0.51 mm 31 W/m2
11:31 5.1 °C 4.8 °C 1005 hPa West 4.8 km/h -1607.7 km/h 98 % 0.51 mm 31 W/m2
11:36 5.1 °C 4.8 °C 1005 hPa West 4.8 km/h -1607.7 km/h 98 % 0.51 mm 31 W/m2
11:41 4.9 °C 4.6 °C 1005 hPa West 14.5 km/h -1607.7 km/h 98 % 0.51 mm 32 W/m2
11:46 4.9 °C 4.6 °C 1005 hPa West 14.5 km/h -1607.7 km/h 98 % 0.51 mm 32 W/m2
11:51 4.9 °C 4.6 °C 1005 hPa West 14.5 km/h -1607.7 km/h 98 % 0.51 mm 32 W/m2
11:56 4.7 °C 4.4 °C 1005 hPa West 12.9 km/h -1607.7 km/h 98 % 0.25 mm 121 W/m2
12:01 4.7 °C 4.4 °C 1005 hPa West 12.9 km/h -1607.7 km/h 98 % 0.25 mm 121 W/m2
12:06 4.7 °C 4.4 °C 1005 hPa West 12.9 km/h -1607.7 km/h 98 % 0.25 mm 121 W/m2
12:11 5 °C 4.7 °C 1005 hPa West 17.7 km/h -1607.7 km/h 98 % 0 mm 169 W/m2
12:16 5 °C 4.7 °C 1005 hPa West 17.7 km/h -1607.7 km/h 98 % 0 mm 169 W/m2
12:21 5 °C 4.7 °C 1005 hPa West 17.7 km/h -1607.7 km/h 98 % 0 mm 169 W/m2
12:26 5.4 °C 4.8 °C 1005.3 hPa WSW 20.9 km/h -1607.7 km/h 96 % 0 mm 234 W/m2
12:31 5.4 °C 4.8 °C 1005.3 hPa WSW 20.9 km/h -1607.7 km/h 96 % 0 mm 234 W/m2
12:36 5.4 °C 4.8 °C 1005.3 hPa WSW 20.9 km/h -1607.7 km/h 96 % 0 mm 234 W/m2
12:41 5.4 °C 4.5 °C 1005.6 hPa West 16.1 km/h -1607.7 km/h 94 % 0 mm 84 W/m2
12:46 5.4 °C 4.5 °C 1005.6 hPa West 16.1 km/h -1607.7 km/h 94 % 0 mm 84 W/m2
12:51 5.4 °C 4.5 °C 1005.6 hPa West 16.1 km/h -1607.7 km/h 94 % 0 mm 84 W/m2
12:56 5.4 °C 4.4 °C 1005.3 hPa West 12.9 km/h -1607.7 km/h 93 % 0 mm 94 W/m2
13:01 5.4 °C 4.4 °C 1005.3 hPa West 12.9 km/h -1607.7 km/h 93 % 0 mm 94 W/m2
13:06 5.4 °C 4.4 °C 1005.3 hPa West 12.9 km/h -1607.7 km/h 93 % 0 mm 94 W/m2
13:11 5.7 °C 4.8 °C 1005.6 hPa West 9.7 km/h -1607.7 km/h 94 % 0 mm 160 W/m2
13:16 5.7 °C 4.8 °C 1005.6 hPa West 9.7 km/h -1607.7 km/h 94 % 0 mm 160 W/m2
13:21 5.7 °C 4.8 °C 1005.6 hPa West 9.7 km/h -1607.7 km/h 94 % 0 mm 160 W/m2
13:26 6.2 °C 4.9 °C 1005.6 hPa West 9.7 km/h -1607.7 km/h 92 % 0 mm 273 W/m2
13:31 6.2 °C 4.9 °C 1005.6 hPa West 9.7 km/h -1607.7 km/h 92 % 0 mm 273 W/m2
13:36 6.2 °C 4.9 °C 1005.6 hPa West 9.7 km/h -1607.7 km/h 92 % 0 mm 273 W/m2
13:41 6.8 °C 5.3 °C 1005.6 hPa WSW 14.5 km/h -1607.7 km/h 90 % 0 mm 405 W/m2
13:46 6.8 °C 5.3 °C 1005.6 hPa WSW 14.5 km/h -1607.7 km/h 90 % 0 mm 405 W/m2
13:51 6.8 °C 5.3 °C 1005.6 hPa WSW 14.5 km/h -1607.7 km/h 90 % 0 mm 405 W/m2
13:56 7.4 °C 5.3 °C 1005.6 hPa WSW 12.9 km/h -1607.7 km/h 86 % 0 mm 412 W/m2
14:01 7.4 °C 5.3 °C 1005.6 hPa WSW 12.9 km/h -1607.7 km/h 86 % 0 mm 412 W/m2
14:06 7.4 °C 5.3 °C 1005.6 hPa WSW 12.9 km/h -1607.7 km/h 86 % 0 mm 412 W/m2
14:11 7.2 °C 5.2 °C 1006 hPa WSW 12.9 km/h -1607.7 km/h 87 % 0 mm 156 W/m2
14:16 7.2 °C 5.2 °C 1006 hPa WSW 12.9 km/h -1607.7 km/h 87 % 0 mm 156 W/m2
14:21 7.2 °C 5.2 °C 1006 hPa WSW 12.9 km/h -1607.7 km/h 87 % 0 mm 156 W/m2
14:26 6.8 °C 4.8 °C 1006 hPa SW 11.3 km/h -1607.7 km/h 87 % 0 mm 97 W/m2
14:31 6.8 °C 4.8 °C 1006 hPa SW 11.3 km/h -1607.7 km/h 87 % 0 mm 97 W/m2
14:36 6.8 °C 4.8 °C 1006 hPa SW 11.3 km/h -1607.7 km/h 87 % 0 mm 97 W/m2
14:41 6.6 °C 4.9 °C 1006.3 hPa WSW 9.7 km/h -1607.7 km/h 89 % 0 mm 72 W/m2
14:46 6.6 °C 4.9 °C 1006.3 hPa WSW 9.7 km/h -1607.7 km/h 89 % 0 mm 72 W/m2
14:51 6.6 °C 4.9 °C 1006.3 hPa WSW 9.7 km/h -1607.7 km/h 89 % 0 mm 72 W/m2
14:56 6.4 °C 4.6 °C 1006.7 hPa WSW 14.5 km/h -1607.7 km/h 88 % 0 mm 63 W/m2
15:01 6.4 °C 4.6 °C 1006.7 hPa WSW 14.5 km/h -1607.7 km/h 88 % 0 mm 63 W/m2
15:06 6.4 °C 4.6 °C 1006.7 hPa WSW 14.5 km/h -1607.7 km/h 88 % 0 mm 63 W/m2
15:11 6.2 °C 4.2 °C 1006.7 hPa WSW 12.9 km/h -1607.7 km/h 87 % 0 mm 27 W/m2
15:16 6.2 °C 4.2 °C 1006.7 hPa WSW 12.9 km/h -1607.7 km/h 87 % 0 mm 27 W/m2
15:21 6.2 °C 4.2 °C 1006.7 hPa WSW 12.9 km/h -1607.7 km/h 87 % 0 mm 27 W/m2
15:26 6.1 °C 4.1 °C 1006.7 hPa WSW 8 km/h -1607.7 km/h 87 % 0 mm 22 W/m2
15:31 6.1 °C 4.1 °C 1006.7 hPa WSW 8 km/h -1607.7 km/h 87 % 0 mm 22 W/m2
15:36 6.1 °C 4.1 °C 1006.7 hPa WSW 8 km/h -1607.7 km/h 87 % 0 mm 22 W/m2
15:41 6.1 °C 4.2 °C 1007 hPa West 8 km/h -1607.7 km/h 88 % 0 mm 38 W/m2
15:46 6.1 °C 4.2 °C 1007 hPa West 8 km/h -1607.7 km/h 88 % 0 mm 38 W/m2
15:51 6.1 °C 4.2 °C 1007 hPa West 8 km/h -1607.7 km/h 88 % 0 mm 38 W/m2
15:56 6.1 °C 3.9 °C 1007 hPa West 14.5 km/h -1607.7 km/h 86 % 0 mm 52 W/m2
16:01 6.1 °C 3.9 °C 1007 hPa West 14.5 km/h -1607.7 km/h 86 % 0 mm 52 W/m2
16:06 6.1 °C 3.9 °C 1007 hPa West 14.5 km/h -1607.7 km/h 86 % 0 mm 52 W/m2
16:11 5.9 °C 3.8 °C 1007 hPa West 12.9 km/h -1607.7 km/h 86 % 0 mm 32 W/m2
16:16 5.9 °C 3.8 °C 1007 hPa West 12.9 km/h -1607.7 km/h 86 % 0 mm 32 W/m2
16:21 5.9 °C 3.8 °C 1007 hPa West 12.9 km/h -1607.7 km/h 86 % 0 mm 32 W/m2
16:26 5.8 °C 3.8 °C 1007.3 hPa West 14.5 km/h -1607.7 km/h 87 % 0 mm 12 W/m2
16:31 5.8 °C 3.8 °C 1007.3 hPa West 14.5 km/h -1607.7 km/h 87 % 0 mm 12 W/m2
16:36 5.8 °C 3.8 °C 1007.3 hPa West 14.5 km/h -1607.7 km/h 87 % 0 mm 12 W/m2
16:41 5.8 °C 3.8 °C 1007.3 hPa West 12.9 km/h -1607.7 km/h 87 % 0 mm 1 W/m2
16:46 5.8 °C 3.8 °C 1007.3 hPa West 12.9 km/h -1607.7 km/h 87 % 0 mm 1 W/m2
16:51 5.8 °C 3.8 °C 1007.3 hPa West 12.9 km/h -1607.7 km/h 87 % 0 mm 1 W/m2
16:56 5.7 °C 3.8 °C 1007.7 hPa West 12.9 km/h -1607.7 km/h 88 % 0 mm 0 W/m2
17:01 5.7 °C 3.8 °C 1007.7 hPa West 12.9 km/h -1607.7 km/h 88 % 0 mm 0 W/m2
17:06 5.7 °C 3.8 °C 1007.7 hPa West 12.9 km/h -1607.7 km/h 88 % 0 mm 0 W/m2
17:11 5.3 °C 3.7 °C 1008 hPa West 17.7 km/h -1607.7 km/h 89 % 0 mm 0 W/m2
17:16 5.3 °C 3.7 °C 1008 hPa West 17.7 km/h -1607.7 km/h 89 % 0 mm 0 W/m2
17:21 5.3 °C 3.7 °C 1008 hPa West 17.7 km/h -1607.7 km/h 89 % 0 mm 0 W/m2
17:26 4.8 °C 3.3 °C 1008 hPa WNW 6.4 km/h -1607.7 km/h 90 % 0 mm 0 W/m2
17:31 4.8 °C 3.3 °C 1008 hPa WNW 6.4 km/h -1607.7 km/h 90 % 0 mm 0 W/m2
17:36 4.8 °C 3.3 °C 1008 hPa WNW 6.4 km/h -1607.7 km/h 90 % 0 mm 0 W/m2
17:41 4.6 °C 3.2 °C 1008 hPa WNW 4.8 km/h -1607.7 km/h 91 % 0 mm 0 W/m2
17:46 4.6 °C 3.2 °C 1008 hPa WNW 4.8 km/h -1607.7 km/h 91 % 0 mm 0 W/m2
17:51 4.6 °C 3.2 °C 1008 hPa WNW 4.8 km/h -1607.7 km/h 91 % 0 mm 0 W/m2
17:56 4.6 °C 3.2 °C 1008.4 hPa WNW 1.6 km/h -1607.7 km/h 91 % 0 mm 0 W/m2
18:01 4.6 °C 3.2 °C 1008.4 hPa WNW 1.6 km/h -1607.7 km/h 91 % 0 mm 0 W/m2
18:06 4.6 °C 3.2 °C 1008.4 hPa WNW 1.6 km/h -1607.7 km/h 91 % 0 mm 0 W/m2
18:11 4.5 °C 3.2 °C 1008.4 hPa Calm   -1607.7 km/h 91 % 0 mm 0 W/m2
18:16 4.5 °C 3.2 °C 1008.4 hPa Calm   -1607.7 km/h 91 % 0 mm 0 W/m2
18:21 4.5 °C 3.2 °C 1008.4 hPa Calm   -1607.7 km/h 91 % 0 mm 0 W/m2
18:26 4.3 °C 3 °C 1008.7 hPa West 3.2 km/h -1607.7 km/h 91 % 0 mm 0 W/m2
18:31 4.3 °C 3 °C 1008.7 hPa West 3.2 km/h -1607.7 km/h 91 % 0 mm 0 W/m2
18:36 4.3 °C 3 °C 1008.7 hPa West 3.2 km/h -1607.7 km/h 91 % 0 mm 0 W/m2
18:41 4.1 °C 2.6 °C 1008.7 hPa Calm   -1607.7 km/h 90 % 0 mm 0 W/m2
18:46 4.1 °C 2.6 °C 1008.7 hPa Calm   -1607.7 km/h 90 % 0 mm 0 W/m2
18:51 4.1 °C 2.6 °C 1008.7 hPa Calm   -1607.7 km/h 90 % 0 mm 0 W/m2
18:56 3.6 °C 2.1 °C 1008.7 hPa Calm   -1607.7 km/h 90 % 0 mm 0 W/m2
19:01 3.6 °C 2.1 °C 1008.7 hPa Calm   -1607.7 km/h 90 % 0 mm 0 W/m2
19:06 3.6 °C 2.1 °C 1008.7 hPa Calm   -1607.7 km/h 90 % 0 mm 0 W/m2
19:11 3 °C 1.7 °C 1009 hPa Calm   -1607.7 km/h 91 % 0 mm 0 W/m2
19:16 3 °C 1.7 °C 1009 hPa Calm   -1607.7 km/h 91 % 0 mm 0 W/m2
19:21 3 °C 1.7 °C 1009 hPa Calm   -1607.7 km/h 91 % 0 mm 0 W/m2
19:26 2.7 °C 1.6 °C 1009 hPa Calm   -1607.7 km/h 92 % 0 mm 0 W/m2
19:31 2.7 °C 1.6 °C 1009 hPa Calm   -1607.7 km/h 92 % 0 mm 0 W/m2
19:36 2.7 °C 1.6 °C 1009 hPa Calm   -1607.7 km/h 92 % 0 mm 0 W/m2
19:41 2.6 °C 1.4 °C 1009 hPa Calm   -1607.7 km/h 92 % 0 mm 0 W/m2
19:46 2.6 °C 1.4 °C 1009 hPa Calm   -1607.7 km/h 92 % 0 mm 0 W/m2
19:51 2.6 °C 1.4 °C 1009 hPa Calm   -1607.7 km/h 92 % 0 mm 0 W/m2
19:56 2.4 °C 1.2 °C 1009.4 hPa Calm   -1607.7 km/h 92 % 0 mm 0 W/m2
20:01 2.4 °C 1.2 °C 1009.4 hPa Calm   -1607.7 km/h 92 % 0 mm 0 W/m2
20:06 2.4 °C 1.2 °C 1009.4 hPa Calm   -1607.7 km/h 92 % 0 mm 0 W/m2
20:11 2.2 °C 1.2 °C 1009.4 hPa Calm   -1607.7 km/h 93 % 0 mm 0 W/m2
20:16 2.2 °C 1.2 °C 1009.4 hPa Calm   -1607.7 km/h 93 % 0 mm 0 W/m2
20:21 2.2 °C 1.2 °C 1009.4 hPa Calm   -1607.7 km/h 93 % 0 mm 0 W/m2
20:26 1.9 °C 0.9 °C 1009.4 hPa SE 1.6 km/h -1607.7 km/h 93 % 0 mm 0 W/m2
20:31 1.9 °C 0.9 °C 1009.4 hPa SE 1.6 km/h -1607.7 km/h 93 % 0 mm 0 W/m2
20:36 1.9 °C 0.9 °C 1009.4 hPa SE 1.6 km/h -1607.7 km/h 93 % 0 mm 0 W/m2
20:41 2.1 °C 1.1 °C 1009.4 hPa SE 3.2 km/h -1607.7 km/h 93 % 0 mm 0 W/m2
20:46 2.1 °C 1.1 °C 1009.4 hPa SE 3.2 km/h -1607.7 km/h 93 % 0 mm 0 W/m2
20:51 2.1 °C 1.1 °C 1009.4 hPa SE 3.2 km/h -1607.7 km/h 93 % 0 mm 0 W/m2
20:56 2.1 °C 1.1 °C 1009.4 hPa Calm   -1607.7 km/h 93 % 0 mm 0 W/m2
21:01 2.1 °C 1.1 °C 1009.4 hPa Calm   -1607.7 km/h 93 % 0 mm 0 W/m2
21:06 2.1 °C 1.1 °C 1009.4 hPa Calm   -1607.7 km/h 93 % 0 mm 0 W/m2
21:11 2.2 °C 1.2 °C 1009.4 hPa SE 1.6 km/h -1607.7 km/h 93 % 0 mm 0 W/m2
21:16 2.2 °C 1.2 °C 1009.4 hPa SE 1.6 km/h -1607.7 km/h 93 % 0 mm 0 W/m2
21:21 2.2 °C 1.2 °C 1009.4 hPa SE 1.6 km/h -1607.7 km/h 93 % 0 mm 0 W/m2
21:26 2.4 °C 1.3 °C 1009.4 hPa South 1.6 km/h -1607.7 km/h 92 % 0 mm 0 W/m2
21:31 2.4 °C 1.3 °C 1009.4 hPa South 1.6 km/h -1607.7 km/h 92 % 0 mm 0 W/m2
21:36 2.4 °C 1.3 °C 1009.4 hPa South 1.6 km/h -1607.7 km/h 92 % 0 mm 0 W/m2
21:41 2.4 °C 1.3 °C 1009.4 hPa Calm   -1607.7 km/h 92 % 0 mm 0 W/m2
21:46 2.4 °C 1.3 °C 1009.4 hPa Calm   -1607.7 km/h 92 % 0 mm 0 W/m2
21:51 2.4 °C 1.3 °C 1009.4 hPa Calm   -1607.7 km/h 92 % 0 mm 0 W/m2
21:56 2.4 °C 1.4 °C 1009.4 hPa South 1.6 km/h -1607.7 km/h 93 % 0 mm 0 W/m2
22:01 2.4 °C 1.4 °C 1009.4 hPa South 1.6 km/h -1607.7 km/h 93 % 0 mm 0 W/m2
22:06 2.4 °C 1.4 °C 1009.4 hPa South 1.6 km/h -1607.7 km/h 93 % 0 mm 0 W/m2
22:11 2.7 °C 1.6 °C 1009.4 hPa SSW 6.4 km/h -1607.7 km/h 92 % 0 mm 0 W/m2
22:16 2.7 °C 1.6 °C 1009.4 hPa SSW 6.4 km/h -1607.7 km/h 92 % 0 mm 0 W/m2
22:21 2.7 °C 1.6 °C 1009.4 hPa SSW 6.4 km/h -1607.7 km/h 92 % 0 mm 0 W/m2
22:26 2.8 °C 1.5 °C 1009.4 hPa SW 6.4 km/h -1607.7 km/h 91 % 0 mm 0 W/m2
22:31 2.8 °C 1.5 °C 1009.4 hPa SW 6.4 km/h -1607.7 km/h 91 % 0 mm 0 W/m2
22:36 2.8 °C 1.5 °C 1009.4 hPa SW 6.4 km/h -1607.7 km/h 91 % 0 mm 0 W/m2
22:41 2.7 °C 1.3 °C 1009.7 hPa SW 4.8 km/h -1607.7 km/h 91 % 0 mm 0 W/m2
22:46 2.7 °C 1.3 °C 1009.7 hPa SW 4.8 km/h -1607.7 km/h 91 % 0 mm 0 W/m2
22:51 2.7 °C 1.3 °C 1009.7 hPa SW 4.8 km/h -1607.7 km/h 91 % 0 mm 0 W/m2
22:56 2.6 °C 1.4 °C 1009.7 hPa SW 4.8 km/h -1607.7 km/h 92 % 0 mm 0 W/m2
23:01 2.6 °C 1.4 °C 1009.7 hPa SW 4.8 km/h -1607.7 km/h 92 % 0 mm 0 W/m2
23:06 2.6 °C 1.4 °C 1009.7 hPa SW 4.8 km/h -1607.7 km/h 92 % 0 mm 0 W/m2
23:11 2.8 °C 1.4 °C 1009.7 hPa SW 3.2 km/h -1607.7 km/h 91 % 0 mm 0 W/m2
23:16 2.8 °C 1.4 °C 1009.7 hPa SW 3.2 km/h -1607.7 km/h 91 % 0 mm 0 W/m2
23:21 2.8 °C 1.4 °C 1009.7 hPa SW 3.2 km/h -1607.7 km/h 91 % 0 mm 0 W/m2
23:26 2.9 °C 1.6 °C 1009.7 hPa WSW 4.8 km/h -1607.7 km/h 91 % 0 mm 0 W/m2
23:31 2.9 °C 1.6 °C 1009.7 hPa WSW 4.8 km/h -1607.7 km/h 91 % 0 mm 0 W/m2
23:36 2.9 °C 1.6 °C 1009.7 hPa WSW 4.8 km/h -1607.7 km/h 91 % 0 mm 0 W/m2
23:41 2.9 °C 1.6 °C 1009.7 hPa SW 1.6 km/h -1607.7 km/h 91 % 0 mm 0 W/m2
23:46 2.9 °C 1.6 °C 1009.7 hPa SW 1.6 km/h -1607.7 km/h 91 % 0 mm 0 W/m2
23:51 2.9 °C 1.6 °C 1009.7 hPa SW 1.6 km/h -1607.7 km/h 91 % 0 mm 0 W/m2
23:56 2.8 °C 1.5 °C 1009.7 hPa SW 1.6 km/h -1607.7 km/h 91 % 0 mm 0 W/m2
Delerius-Weather
Compliments of Weather Underground - 2.25 mb

Data updates at regular intervals.